User: anonymous   Login
Location: Unspecified
(0.0000°N, 0.0000°E)
Time: 12:06:52
(UTC+00:00)
Language:

FORMOSAT 3E - Orbit

View from above orbital plane
View from above orbital plane
View from above satellite
View from above satellite

Ground track
Ground track

The orbit data is extracted from the following two-line orbital elements,

1 29051U 06011E   18347.85517788 +.00000061 +00000-0 +39635-4 0  9994
2 29051 072.0043 138.9057 0067652 160.1864 200.1925 14.28711656663409
Epoch (UTC): 13 December 2018 20:31:27
Eccentricity: 0.0067652
inclination: 72.0043°
perigee height: 747 km
apogee height: 844 km
right ascension of ascending node: 138.9057°
argument of perigee: 160.1864°
revolutions per day: 14.28711656
mean anomaly at epoch: 200.1925°
orbit number at epoch: 66340

The dashed part of the orbit path shows where the satellite is in the earth's shadow,  

DLR